Regional Weather Roundup
Issued by NWS

Home | Current Version | Previous Version | Text Only | Print | Product List | Glossary Off
Versions: 1 2 3 4 5 6 7 8 9 10 11 12 13 14 15 16 17 18 19 20 21 22 23 24 25 26 27 28 29 30 31 32 33 34 35 36 37 38 39 40 41 42 43 44 45 46 47 48 49 50

000
ASUS45 KBOU 290007
RWRCO

WEATHER ROUNDUP FOR COLORADO
NATIONAL WEATHER SERVICE DENVER/BOULDER CO
600 PM MDT FRI AUG 28 2015

NOTE: "FAIR" INDICATES FEW OR NO CLOUDS BELOW 12000 FEET WITH NO
SIGNIFICANT WEATHER AND/OR OBSTRUCTIONS TO VISIBILITY.

COZ001>005-013-030-031-290100-
...NORTHWEST COLORADO...

CITY           SKY/WX    TMP DP  RH WIND       PRES   REMARKS
CRAIG          SUNNY     81  38  21 SE5       30.26S
HAYDEN         NOT AVBL
MEEKER         SUNNY     81  36  19 S7        30.27S
MOUNT WERNER   NOT AVBL
STEAMBOAT SPGS SUNNY     75  43  31 S5        30.32S
WALDEN         SUNNY     64  37  36 W8        30.42R
$$

COZ006>008-011-290100-
...WEST CENTRAL VALLEYS...

CITY           SKY/WX    TMP DP  RH WIND       PRES   REMARKS
GRAND JUNCTION SUNNY     86  40  19 SW10      30.13F
MONTROSE       SUNNY     82  44  26 NW12      30.22F
EAGLE          MOSUNNY   81  37  21 CALM      30.29S
RIFLE          SUNNY     85  41  21 W8        30.19F
DELTA          SUNNY     87  44  22 S9        30.17F
NUCLA          SUNNY     84  32  15 NE10      30.25S
$$

COZ017>023-064>068-290100-
...SOUTHWEST COLORADO...

CITY           SKY/WX    TMP DP  RH WIND       PRES   REMARKS
DURANGO        MOSUNNY   83  37  19 W9        30.22S
CORTEZ         SUNNY     86  34  15 N12       30.16F
PAGOSA SPRINGS MOSUNNY   80  28  14 SW7       30.30S
TELLURIDE      SUNNY     69  34  27 N5        30.46R
WOLF CREEK PAS MOSUNNY   54  30  40 NE5       30.69S
$$

COZ009-010-012-014-032>034-037-058>063-290100-
...CENTRAL COLORADO...

CITY           SKY/WX    TMP DP  RH WIND       PRES   REMARKS
ASPEN          SUNNY     73  41  31 W5        30.36F
BUENA VISTA    MOSUNNY   75  29  18 N8G16     30.35R
COPPER MTN     PTSUNNY   55  34  44 W6        30.69S
BERTHOUD PASS  FAIR      46  36  66 MISG      30.75R
COTTONWOOD PAS MOSUNNY   70  23  17 CALM      30.51S
GUNNISON       MOSUNNY   75  32  20 W5        30.36S
KREMMLING      MOSUNNY   73  32  21 NE13G20   30.36S
LEADVILLE      MOSUNNY   62  29  28 NW8       30.52S
MONARCH PASS   PTSUNNY   52  32  46 E9G21     30.78R
SALIDA         MOSUNNY   76  33  20 W13       30.39S
SUNLIGHT       CLOUDY    63  43  48 CALM      30.64S
WILKERSON PASS PTSUNNY   55  34  44 E7        30.67R
$$

COZ069>075-290100-
...SAN LUIS VALLEY/SANGRE DE CRISTO MOUNTAINS...

CITY           SKY/WX    TMP DP  RH WIND       PRES   REMARKS
ALAMOSA        SUNNY     80  24  12 VRB3      30.29F
LA VETA PASS   MOSUNNY   59  41  51 MISG      30.54S
SAGUACHE       MOSUNNY   73  36  25 CALM      30.34F
$$

COZ035-036-038>040-290100-
...NORTHERN COLORADO FRONT RANGE...

CITY           SKY/WX    TMP DP  RH WIND       PRES   REMARKS
DENVER INTL AP MOSUNNY   82  39  21 N12       30.21R
DMNS CITY PARK   N/A     82  39  21 N7G14     30.20S
AURORA         MOSUNNY   82  42  24 NE8       30.23S
FRONT RANGE AP MOSUNNY   81  37  21 N12G18    30.22S
ERIE MUNI ARPT MOSUNNY   83  38  19 NE6       30.19S
BOULDER MUN AP MOSUNNY   79  43  27 CALM      30.20S
CENTENNIAL     MOSUNNY   80  43  26 N8        30.24S
BROOMFIELD     PTSUNNY   82  39  21 N10       30.23S
FORT COLLINS   SUNNY     82  41  23 E7        30.16S
LONGMONT       SUNNY     85  40  20 CALM      30.20S
$$

COZ041-046-047-076>085-087-088-290100-
...PIKES PEAK/PALMER DIVIDE AND SOUTHERN FOOTHILLS...

CITY           SKY/WX    TMP DP  RH WIND       PRES   REMARKS
COLO. SPRINGS  MOSUNNY   77  41  27 NE10      30.27R
A. F. ACADEMY  MOSUNNY   77  41  28 N12       30.28R
ELLICOTT       MOSUNNY  N/A N/A N/A NE10G18   30.25R
FALCON         MOSUNNY   76  40  28 MISG      30.33R
FORT CARSON    PTSUNNY   79  46  30 E3        30.23S
LIMON          SUNNY     80  43  26 NW12      30.20R
MONUMENT HILL  SUNNY     72  37  28 N12       30.34R
TRINIDAD       MOSUNNY   79  45  29 NE5       30.21S
$$

COZ042>045-048>051-090-091-290100-
...NORTHEAST COLORADO...

CITY           SKY/WX    TMP DP  RH WIND       PRES   REMARKS
GREELEY ARPT   SUNNY     84  39  20 SE5       30.16S
AKRON          SUNNY     84  37  18 N13       30.15R
BURLINGTON     SUNNY     84  41  21 N14       30.11R
WRAY           SUNNY     88  41  19 N12       30.07S
STERLING       SUNNY     86  46  25 NE6       30.10R
HOLYOKE        SUNNY     88  41  19 NE10      30.08R
FORT MORGAN    SUNNY     84  36  18 N12       30.15R
$$

COZ086-089-092>099-290100-
...SOUTHEAST COLORADO...

CITY           SKY/WX    TMP DP  RH WIND       PRES   REMARKS
PUEBLO         MOSUNNY   87  44  22 NE7       30.14S
LA JUNTA       MOSUNNY   89  45  21 N13       30.10F
LAMAR          MOSUNNY   90  50  25 NE9       30.03S
SPRINGFIELD      N/A     85  48  27 NW9       30.10S
$$



USA.gov is the U.S. government's official web portal to all federal, state and local government web resources and services.